Weather in Oktyabrskiy

Russia / Ivanovo Oblast     57°08′04″N   40°20′08″E
temp.,
°C
wind,
m/s
gust,
m/s
humid.,
%
clouds,
%
prec.,
mm/h
press.,
hPa
HPBL,
m
6 august, fri
fri600:00+15se3678100 0.1 1015145
03:00+15ese5108252 0.3 1014254
06:00+14ese4108860 0.6 1014267
09:00+16sse4678100 0.6 1013373
12:00+24ssw454649 0.0 10131606
15:00+21ssw6967100 0.5 1013457
18:00+18s4881100 0.3 1014478
21:00+16sse4899100 3.6 1014310
7 august, sat
sat700:00+16e4999100 5.5 1013343
03:00+16e41097100 7.0 1013343
06:00+16e61195100 0.2 1013458
09:00+18ese698897 0.5 1012540
12:00+21se577994 2.3 1012839
15:00+26s5758100 3.3 10121316
18:00+24ese496597 0.1 1011316
21:00+19ese498197 0.1 1013185
8 august, sun
sun800:00+19se227892 0.0 101325
03:00+20sse41362100 0.0 1013386
06:00+19sse4116694 0.0 1013311
09:00+22s51055100 0.0 1013533
12:00+23s5754100 0.0 1014607
15:00+21ssw3670100 0.0 1015158
18:00+23sw4766100 0.0 1015589
21:00+18sw22840 0.0 101614
9 august, mon
mon900:00+17sw11860 0.0 101711
03:00+16w22900 0.0 101812
06:00+17wsw22851 0.0 101958
09:00+22wsw34639 0.0 1019647
12:00+26w344911 0.0 10191481
15:00+27w34435 0.0 10191823
18:00+26wnw23490 0.0 1018968
21:00+20nw11690 0.0 101911
10 august, tue
tue1000:00+19e1171100 0.0 101911
03:00+19se2272100 0.0 101918
06:00+19s2373100 0.0 101976
09:00+23ssw2359100 0.0 1020310
12:00+21ssw2271100 0.0 102078
15:00+21sse2364100 0.0 1019111
18:00+22s3763100 0.0 1019327
21:00+18sse2488100 0.0 1019106